Zurück zum Katalog

CZ-6A DEB

AktivPO
NORAD 56667·DEBRIS·🇨🇳 China

Gestartet Nov 11, 2022 von Taiyuan Satellite Launch Center

Loading…

Nächste Überflüge (nächste 24 Stunden)

TLE

AktuellSource: Space-Track

Epoche: Sep 14, 2026, 04:53 UTC

1 56667U 22151AGT 26257.20361619  .00001448  00000-0  31810-3 0  9994
2 56667  98.8076 350.6545 0105848  49.2960 311.7372 14.55821911184738

Verfolge CZ-6A DEB in Echtzeit mit AllMySat

Download on the App Store